LUSAT (LO-19)

Last updated on Thu Oct 30 2025 00:03:10 GMT+0000 (Coordinated Universal Time)

1 20442U 90005G 25302.51947571 .00000213 00000+0 93154-4 0 9998 2 20442 98.8992 312.8264 0011992 157.7953 202.3752 14.34017108869333
UTC large
Height (km)
Speed (km/s)
/
Latitude / Longitude
Inclination (degrees)
Orbital Period (minutes)
Azimuth
Elevation
Range (km)
Doppler Factor

Next 0 passes for location: London (51.5072 / 0.1276)

Sorry there are no passes over London.